Home > Weather > Brattleboro > Past weeks

Flag for USA Past Weather in Brattleboro, Vermont, USA — Yesterday and Last 2 Weeks

Now
56 °F

Clear.


Feels Like: 55 °F
Forecast: 55 / 79 °F
Wind: 5 mph from Northeast

Location: Orange Municipal Airport

Current Time: Jun 1, 2016 at 1:38:58 AM

Latest Report: Jun 1, 2016 at 12:52 AM


Visibility: 10 mi

Pressure: 30.00 "Hg

Humidity: 90%

Dew Point: 53 °F

Location of BrattleboroLocation

Past Weather in Brattleboro — Graph

°F

Brattleboro Temperature Yesterday

Maximum temperature yesterday: 82 °F (at 2:52 PM)
Minimum temperature yesterday: 59 °F (at 5:52 AM)
Average temperature yesterday: 71 °F

High & Low Weather Summary for the Past Weeks

 TemperatureHumidityPressure
High92 °F (May 28, 2:52 PM)100% (May 19, 10:52 PM)30.25 "Hg (May 19, 10:52 PM)
Low36 °F (May 17, 5:52 AM)20% (May 23, 2:52 PM)29.79 "Hg (May 22, 4:52 PM)
Average64 °F67%30.03 "Hg
* Reported May 16 11:52 PM — May 31 11:52 PM, Brattleboro, Weather by CustomWeather, © 2016

Note: Actual official high and low records may vary slightly from our data, if they occured in-between our weather recording intervals... More about our weather records

Advertising

Brattleboro Weather History for the Previous 24 Hours

Scroll right to see more
 ConditionsComfort  
Time TempWeatherWind HumidityBarometerVisibility
11:52 PM
Tue, May 31
60 °FClear.3 mph78%29.99 "Hg10 mi
10:52 PM62 °FClear.No wind75%29.98 "Hg10 mi
9:52 PM66 °FClear.No wind68%29.97 "Hg10 mi
8:52 PM73 °FSunny.7 mph43%29.94 "Hg10 mi
7:52 PM76 °FSunny.6 mph42%29.92 "Hg10 mi
6:52 PM80 °FSunny.8 mph35%29.90 "Hg10 mi
5:52 PM82 °FSunny.9 mph33%29.88 "Hg10 mi
4:52 PM82 °FSunny.16 mph32%29.88 "Hg10 mi
3:52 PM82 °FSunny.12 mph31%29.88 "Hg10 mi
2:52 PM82 °FSunny.12 mph28%29.89 "Hg10 mi
1:52 PM81 °FSunny.15 mph28%29.89 "Hg10 mi
12:52 PM80 °FSunny.8 mph29%29.91 "Hg10 mi
11:52 AM79 °FSunny.12 mph30%29.92 "Hg10 mi
10:52 AM76 °FSunny.9 mph43%29.93 "Hg10 mi
9:52 AM73 °FSunny.7 mph50%29.94 "Hg10 mi
8:52 AM71 °FSunny.7 mph59%29.95 "Hg10 mi
7:52 AM67 °FSunny.No wind81%29.94 "Hg10 mi
7:04 AM62 °FScattered clouds.No wind96%29.94 "Hg10 mi
5:52 AM59 °FFog.No wind96%29.92 "Hg0 mi
4:52 AM60 °FFog.No wind96%29.91 "Hg1 mi
4:00 AM61 °FFog.No wind97%29.91 "Hg1 mi
2:52 AM62 °FFog.No wind96%29.91 "Hg6 mi
1:52 AM63 °FClear.No wind97%29.90 "Hg10 mi
Weather by CustomWeather, © 2016

See weather overviewHow to use our weather pages